• Join FlightAware (Why Join?)
  • Login
  • US Flag 
12:47AM EST


 

Airport Tracker/Info


-or-


 

Live Flight TrackerFlight Track Log ✈ EJA941 ✈ 12-Jan-2014 ✈ KMKC - KBLM

Flight Track Log - Related Links

Times and Time Zones

All times are in EST time to prevent confusion due to time zone crossing. See the EJA941 flight status page for this flight to view local times or setup timezone preferences in your user account.

Time Position Orientation Groundspeed Altitude Reporting Facility
EST Latitude Longitude Course Direction KTS MPH feet Rate Location/Type
08:30AM 39.1167 -94.6000 218° Southwest 159 183 1,400  Level Kansas City TRACON
08:31AM 39.1000 -94.6167 218° Southwest 165 190 3,300 3,843 Climbing Kansas City TRACON
08:32AM 39.0572 -94.6667 222° Southwest 222 255 7,100 3,744 Climbing Kansas City Center
08:33AM 39.0153 -94.5931 126° Southeast 311 358 11,100 3,098 Climbing Kansas City Center
08:34AM 39.0814 -94.5094 44° Northeast 377 434 13,400 2,250 Climbing Kansas City Center
08:35AM 39.1969 -94.4528 21° North 403 464 15,600 2,067 Climbing Kansas City Center
08:36AM 39.2969 -94.3983 23° Northeast 407 468 17,500 1,983 Climbing Kansas City Center
08:37AM 39.3986 -94.3439 22° Northeast 413 475 19,600 2,182 Climbing Kansas City Center
08:38AM 39.5131 -94.2561 31° Northeast 437 503 21,900 1,887 Climbing Kansas City Center
08:39AM 39.5875 -94.1319 52° Northeast 458 527 23,500 1,587 Climbing Kansas City Center
08:40AM 39.6356 -93.9772 68° East 479 551 25,100 1,686 Climbing Kansas City Center
08:41AM 39.6878 -93.7869 70° East 500 575 26,900 1,645 Climbing Kansas City Center
08:42AM 39.7361 -93.6114 70° East 513 590 28,500 1,587 Climbing Kansas City Center
08:43AM 39.7850 -93.4367 70° East 516 594 30,100 1,574 Climbing Kansas City Center
08:44AM 39.8350 -93.2550 70° East 532 612 31,700 1,574 Climbing Kansas City Center
08:45AM 39.8856 -93.0683 71° East 541 623 33,300 1,537 Climbing Kansas City Center
08:46AM 39.9347 -92.8872 70° East 545 627 34,800 1,525 Climbing Kansas City Center
08:47AM 39.9844 -92.7025 71° East 547 629 36,400 1,537 Climbing Kansas City Center
08:48AM 40.0356 -92.5169 70° East 553 636 37,900 1,700 Climbing Kansas City Center
08:49AM 40.0928 -92.2989 71° East 541 623 39,800 1,537 Climbing Kansas City Center
08:50AM 40.1422 -92.1192 70° East 535 616 41,000 585 Climbing Kansas City Center
08:51AM 40.1914 -91.9319 71° East 543 625 41,000  Level Kansas City Center
08:52AM 40.2419 -91.7386 71° East 554 638 41,000  Level Kansas City Center
08:53AM 40.2917 -91.5439 71° East 569 655 41,000  Level Kansas City Center
08:54AM 40.3431 -91.3456 71° East 580 667 41,000  Level Kansas City Center
08:55AM 40.3961 -91.1403 71° East 580 667 41,000  Level Kansas City Center
08:56AM 40.4489 -90.9433 71° East 582 670 41,000  Level Chicago Center
08:57AM 40.4986 -90.7411 72° East 583 671 41,000  Level Chicago Center
08:58AM 40.5481 -90.5397 72° East 578 665 41,000  Level Chicago Center
08:59AM 40.5983 -90.3369 72° East 582 670 41,000  Level Chicago Center
09:00AM 40.6544 -90.1100 72° East 580 667 41,000  Level Chicago Center
09:01AM 40.7036 -89.9089 72° East 580 667 41,000  Level Chicago Center
09:02AM 40.7481 -89.7072 74° East 578 665 41,000  Level Chicago Center
09:03AM 40.7978 -89.5103 71° East 579 666 41,000  Level Chicago Center
09:04AM 40.8478 -89.3044 72° East 584 672 41,000  Level Chicago Center
09:05AM 40.8956 -89.1014 73° East 581 669 41,000  Level Chicago Center
09:06AM 40.9425 -88.8992 73° East 579 666 41,000  Level Chicago Center
09:07AM 40.9853 -88.7033 74° East 563 648 41,000  Level Chicago Center
09:08AM 41.0397 -88.4636 73° East 569 655 41,000  Level Chicago Center
09:09AM 41.0853 -88.2678 73° East 564 649 41,000  Level Chicago Center
09:10AM 41.1292 -88.0706 73° East 567 652 41,000  Level Chicago Center
09:11AM 41.1722 -87.8750 74° East 564 649 41,000  Level Chicago Center
09:12AM 41.2164 -87.6761 73° East 570 656 41,000  Level Chicago Center
09:14AM 41.2608 -87.4767 73° East 569 655 41,000  Level Chicago Center
09:15AM 41.3119 -87.2397 74° East 563 648 41,000  Level Chicago Center
09:16AM 41.3539 -87.0397 74° East 564 649 41,000  Level Chicago Center
09:17AM 41.3958 -86.8419 74° East 560 644 41,000  Level Chicago Center
09:18AM 41.4344 -86.6528 75° East 556 640 41,000  Level Chicago Center
09:19AM 41.4717 -86.4550 76° East 554 638 41,000  Level Chicago Center
09:20AM 41.4775 -86.2486 88° East 562 647 41,000  Level Chicago Center
09:21AM 41.4761 -86.0414 90° East 563 648 41,000  Level Chicago Center
09:22AM 41.4747 -85.7908 90° East 569 655 41,000  Level Chicago Center
09:23AM 41.4719 -85.5828 91° East 572 658 41,000  Level Chicago Center
09:24AM 41.4692 -85.3783 91° East 568 654 41,000  Level Chicago Center
09:25AM 41.4672 -85.1722 91° East 573 659 41,000  Level Chicago Center
09:26AM 41.4639 -84.9636 91° East 571 657 41,000  Level Chicago Center
09:27AM 41.4600 -84.7556 91° East 568 654 41,000  Level Chicago Center
09:28AM 41.4558 -84.5450 91° East 571 657 41,000  Level Chicago Center
09:29AM 41.4511 -84.2939 91° East 566 651 41,000  Level Chicago Center
09:30AM 41.4325 -84.0853 97° East 569 655 41,000  Level Chicago Center
09:31AM 41.3911 -83.8778 105° East 577 664 41,000  Level Chicago Center
09:32AM 41.3525 -83.6722 104° East 575 662 41,000  Level Chicago Center
09:33AM 41.2950 -83.3706 104° East 572 658 41,000  Level Cleveland Center
09:34AM 41.2528 -83.1522 104° East 573 659 41,000  Level Cleveland Center
09:35AM 41.2119 -82.9447 105° East 577 664 41,000  Level Cleveland Center
09:36AM 41.1717 -82.7389 105° East 575 662 41,000  Level Cleveland Center
09:37AM 41.1300 -82.5308 105° East 579 666 41,000  Level Cleveland Center
09:38AM 41.0872 -82.3253 105° East 576 663 41,000  Level Cleveland Center
09:39AM 41.0464 -82.1233 105° East 569 655 41,000  Level Cleveland Center
09:40AM 41.0050 -81.9228 105° East 567 652 41,000  Level Cleveland Center
09:41AM 40.9642 -81.7231 105° East 565 650 41,000  Level Cleveland Center
09:42AM 40.9222 -81.5233 105° East 566 651 41,000  Level Cleveland Center
09:44AM 40.8789 -81.3239 106° East 565 650 41,000  Level Cleveland Center
09:45AM 40.8356 -81.1206 106° East 573 659 41,000  Level Cleveland Center
09:46AM 40.7842 -80.8911 106° East 579 666 41,000  Level Cleveland Center
09:47AM 40.7375 -80.6753 106° East 583 671 41,000  Level Cleveland Center
09:48AM 40.6917 -80.4658 106° East 589 678 41,000  Level Cleveland Center
09:49AM 40.6464 -80.2625 106° East 588 677 41,000  Level Cleveland Center
09:50AM 40.6006 -80.0564 106° East 590 679 41,000  Level Cleveland Center
09:51AM 40.5511 -79.8472 107° East 593 682 41,000  Level Cleveland Center
09:52AM 40.5083 -79.6347 105° East 597 687 41,000  Level Cleveland Center
09:53AM 40.4900 -79.4181 96° East 598 688 41,000  Level Cleveland Center
09:54AM 40.4758 -79.2142 95° East 594 684 41,000 -1,268 Level Cleveland Center
09:55AM 40.4578 -78.9583 95° East 593 682 38,400 -2,683 Descending Cleveland Center
09:56AM 40.4428 -78.7592 96° East 572 658 35,500 -2,852 Descending Cleveland Center
09:57AM 40.4275 -78.5603 96° East 557 641 32,600 -2,902 Descending Cleveland Center
09:58AM 40.4114 -78.3583 96° East 560 644 29,600 -2,951 Descending Cleveland Center
09:59AM 40.3953 -78.1542 96° East 566 651 26,600 -2,872 Descending Cleveland Center
09:59AM 40.3844 -78.0278 96° East 565 650 25,100 -1,097 Descending New York Center
10:00AM 40.3692 -77.8328 96° East 551 634 24,900 -650 Descending New York Center
10:01AM 40.3514 -77.6400 97° East 540 621 23,800 -1,100 Descending New York Center
10:02AM 40.3364 -77.4669 96° East 534 615 22,700 -1,150 Descending New York Center
10:03AM 40.3164 -77.2636 97° East 523 602 21,500 -1,150 Descending New York Center
10:04AM 40.2992 -77.0822 97° East 518 596 20,400 -1,450 Descending New York Center
10:05AM 40.2711 -76.9028 102° East 507 583 18,600 -1,850 Descending New York Center
10:06AM 40.2475 -76.7511 101° East 482 555 16,700 -1,550 Descending New York Center
10:07AM 40.2222 -76.5886 101° East 469 540 15,500 -1,450 Descending New York Center
10:08AM 40.1911 -76.4119 103° East 457 526 13,800 -1,550 Descending New York Center
10:09AM 40.1672 -76.2581 101° East 446 513 12,400 -1,450 Descending New York Center
10:10AM 40.1428 -76.1067 102° East 432 497 10,900 -1,400 Descending New York Center
10:11AM 40.1253 -75.9911 101° East 386 444 9,600 -1,400 Descending New York Center
10:12AM 40.1014 -75.8700 104° East 327 376 8,100 -1,200 Descending New York Center
10:13AM 40.0831 -75.7628 103° East 309 356 7,200 -550 Descending New York Center
10:14AM 40.0850 -75.6625 89° East 302 348 7,000 -150 Descending New York Center
10:15AM 40.0958 -75.5494 83° East 290 334 6,900 -500 Descending New York Center
10:16AM 40.0997 -75.4547 87° East 285 328 6,000 -1,000 Descending New York Center
10:17AM 40.1083 -75.3439 84° East 285 328 4,900 -1,020 Descending New York Center
10:18AM 40.1167 -75.2667 82° East 286 329 4,300 -540 Descending Philadelphia TRACON
10:19AM 40.1167 -75.1667 90° East 279 321 4,000 -522 Descending Philadelphia TRACON
10:20AM 40.1333 -75.0333 81° East 273 314 3,100 -429 Descending Philadelphia TRACON
10:21AM 40.1328 -74.9681 91° East 243 280 3,000 -98 Descending New York Center
10:22AM 40.1406 -74.8656 84° East 238 274 2,900 -50 Descending New York Center
10:23AM 40.1475 -74.7789 84° East 257 296 2,900  Level New York Center
10:24AM 40.1528 -74.6869 86° East 257 296 2,900  Level New York Center
10:26AM 40.1559 -74.4763 72° East  Level FlightAware Approximate
10:33AM 40.1833 -74.1167 78° East  Level FlightAware Approximate
10:34AM 40.1867 -74.1246 78° East  Level Estimated
10:35AM 40.1833 -74.1167 78° East  Level FlightAware Approximate
10:36AM 40.1867 -74.1246 78° East  Level Estimated